Location: ??????????
(54.8537°N, 38.8755°E)
Time: 22:10:18
(UTC+00:00)

Tiros 1 - Pass Details

Date: 14 September 2024
Orbit: 623 x 654 km, 48.4° (Epoch: 09 October)

Event Time Altitude Azimuth Distance (km) Brightness Sun altitude
Rises 17:53:21 0° 270° (W) 2,915 11.4 -18.3°
Reaches altitude 10° 17:55:57 10° 257° (WSW) 2,011 10.2 -18.6°
Maximum altitude 17:59:46 26° 202° (SSW) 1,258 8.5 -19.1°
Enters shadow 18:00:41 24° 183° (S) 1,314 8.4 -19.2°
Drops below altitude 10° 18:03:36 10° 146° (SE) 2,023 - -19.5°
Sets 18:06:14 0° 134° (SE) 2,936 - -19.8°
